sat.trackr.live / text

‹ back to catalog

KUIPER-00140

NORAD 65965 · 2025-228U

PAYLOAD ACTIVE UNKNOWN

§ Identity

Operator
Country
US
Launch date
2025-10-14
Launch site
AFETR
Launch vehicle
Mass (kg)
RCS (m²)

External: N2YO · Heavens-Above · Gunter

§ Orbital elements

Epoch: 2026-05-24T23:40:33.242304Z

Period
97.30 min
Inclination
51.8995°
Eccentricity
0.0000803
Mean motion
14.79937302 rev/d
Perigee alt
629.0 km
Apogee alt
630.1 km
Semi-major
7,007.7 km
B*
2.3429e-4
RAAN
8.2829°
Arg perigee
106.4572°
Mean anomaly
253.6479°
Rev number
3,473

§ Raw data

KUIPER-001401 65965U 25228U   26144.98649586  .00001565  00000+0  23429-3 0  99912 65965  51.8995   8.2829 0000803 106.4572 253.6479 14.79937302 34733

JSON: /api/v1/satellites/65965 · /tle

For live sub-satellite position, see the globe view (requires WebGL).

§ Visibility from observer

Set your observer location to see the next 7 days of passes ≥ 10°. The values pass through the URL so the page stays shareable.

No JS? Fill the form by hand. The geolocation button needs JavaScript.